Location: Marcé
(47.5801°N, 0.3280°W)
Time: 15:32:42
(UTC+01:00)

Vanguard 1 - Pass Details

Date: 03 December 2021
Orbit: 652 x 3830 km, 34.2° (Epoch: 19 January)

Event Time Altitude Azimuth Distance (km) Brightness Sun altitude
Rises 05:55:15 0° 274° (W) 7,945 - -25.4°
Reaches altitude 10° 06:01:26 10° 269° (W) 6,761 - -24.4°
Exits shadow 06:09:16 24° 256° (WSW) 5,251 13.2 -23.0°
Maximum altitude 06:19:44 40° 210° (SSW) 3,722 12.8 -21.3°
Drops below altitude 10° 06:31:27 10° 147° (SSE) 4,393 14.0 -19.4°
Sets 06:34:30 0° 139° (SE) 5,022 14.6 -18.9°
